IRIDIUM 33 DEB, 39778

Orbit data source: Space-Track

IRIDIUM 33 DEB, 39778 is space debris in LEO originally from a launch on Sun, 14 Sep 1997 UTC launched from the Tyuratam Missile And Space Complex (TTMTR). The debris from Iridium 33, an American commercial communications satellite, has been tracked extensively since its accidental collision with the defunct Russian satellite Cosmos 2251 in 2009. This event, occurring at high speed in low Earth orbit (LEO), generated thousands of pieces of space debris, significantly increasing the risk of further collisions. The Iridium 33 debris cloud has impacted space traffic management and orbital debris mitigation strategies, making it a subject of ongoing study in space situational awareness.

Loading next visibility...
Identifier
39778, 1997-051AAK
Orbit
LEO
Country
Flag of USUS
Related business
Manufacturer
Unknown
Mission
Spacecraft
Bus & Motor
Unknown
Mass
Unknown
Launch date (UTC)
1997-09-14 (29 years ago)
Launch vehicle
Unknown
Launch site
Tyuratam Missile And Space Complex (TTMTR)
Object type
Payload
Rocket body
Debris
Shape & HBR
Unknown shape, 0.1 m
Radar Cross Section
Small (<0.1 m²)

Expand to show TLE details & history
Last TLE update: 4 hours ago

TLE from 4 hours ago
0 IRIDIUM 33 DEB
1 39778U 97051AAK 26127.85478860  .00002547  00000-0  58045-3 0  9993
2 39778  86.3779 339.7505 0004850 249.3852 110.6836 14.55523161628170
Epoch: 2026-05-07T20:30Z
TLE epoch observation values (Epoch: 2026-05-07T20:30:53.735Z)
Latitude
0.00004°
Longitude
166.33166°
Altitude
711.963 km
Speed
7.499 km/s
True Right ascension
22h 39m 00s
True Declination
0° 00' 00"
Sunlit
Object was in daylight at epoch
Visualization orbit readout
Latitude
Unknown
Longitude
Unknown
Altitude
Unknown
Speed
Unknown
Apparent Right ascension
Unknown
Apparent Declination
Unknown
Sunlit
N/A
Visualization observer readout
Local Sidereal Time
08:10:34
Azimuth
Unknown
Elevation
Unknown
Doppler factor
Unknown
Orbital elements
Apogee altitude
708.036 km
Perigee altitude
701.166 km
Semi-major axis
7,082.738 km
Eccentricity
0.00049
Inclination
86.3779°
RAAN
339.7505°
Arg. of periapsis
249.3852°
True anomaly
110.73558°
Mean anomaly
110.6836°
Eccentric anomaly
110.70959°
Mean motion
3.64117 °/min
Orbital period
98.87 mins
BSTAR
0.00058045

Documentation

Showing up to 5 results
|